Theta_e
339 337 340 346 347 345 344 346 346 347 347 347 348 347 347 346 346 345 345 343 343 343 343 343 343 344 344 345 346 348 348 348 348 347 346 346 345 344 343 344 345 346 347 346 346 345 346 346 345 345 345 345 346 345 346 345 345 345 343 343 342 341 341 342 341 340 338 338 339 340 340 340 338 337 338 337 336 336 338 337 337 332 333 333 337
337 338 339 343 345 342 345 346 347 347 347 348 346 347 346 345 344 343 343 343 343 341 341 342 342 342 342 343 343 344 345 347 346 345 345 344 344 344 344 343 342 343 343 344 344 345 346 345 345 345 346 346 345 345 344 345 344 342 340 339 339 339 338 338 338 338 338 338 339 338 337 337 336 336 336 337 336 337 337 335 335 333 331 335 336
339 338 340 343 344 346 344 345 346 347 346 348 347 346 346 345 345 345 343 341 341 342 342 342 342 342 342 343 343 342 343 343 343 343 343 343 342 342 344 344 344 343 343 344 344 344 344 345 345 346 345 344 344 344 344 342 341 339 339 338 338 337 337 337 337 337 337 338 338 337 336 336 335 335 336 335 336 336 335 334 335 334 331 335 335
337 338 340 344 347 346 344 346 346 346 346 347 346 345 344 343 343 344 343 342 342 341 341 340 341 341 341 342 342 342 342 342 342 342 342 342 341 341 341 342 341 341 342 344 343 343 343 344 344 345 344 344 344 343 342 340 339 339 338 337 337 337 337 337 337 338 339 340 341 335 332 331 332 334 334 333 336 337 335 334 334 334 333 332 333
337 338 338 340 343 347 347 347 346 346 347 347 346 344 342 343 342 342 342 341 341 342 341 340 339 341 342 342 341 341 341 341 341 341 340 341 341 341 341 345 343 342 343 343 343 343 343 343 344 344 343 343 343 342 341 339 339 338 338 337 336 335 336 336 336 337 337 340 336 333 330 329 330 333 333 338 338 335 335 335 333 330 330 331 336
337 338 338 340 343 347 347 347 346 346 347 346 345 344 343 343 342 340 340 343 343 343 341 341 341 342 341 339 339 343 342 341 340 339 343 341 342 342 345 346 346 346 346 345 345 344 344 344 343 343 343 341 342 340 339 338 337 337 337 336 335 335 335 336 336 337 337 337 336 330 329 329 329 330 334 336 335 335 335 332 331 333 334 334 335
337 338 337 341 342 345 347 346 346 345 345 346 345 344 344 343 341 338 338 339 342 342 341 341 341 341 342 342 342 341 339 341 341 342 341 344 343 342 342 343 343 342 343 342 342 342 342 342 342 342 342 341 341 339 338 337 337 336 336 335 334 334 334 334 335 338 335 333 330 329 329 329 329 329 332 333 333 332 333 332 335 334 333 333 333
339 339 337 341 344 345 345 346 345 345 346 346 345 343 342 341 340 340 340 342 341 340 340 341 341 341 341 342 342 341 338 337 340 341 342 342 341 344 345 345 345 345 344 345 344 343 342 341 342 342 342 341 340 339 339 337 337 335 334 333 333 333 334 335 336 336 334 329 330 330 328 328 330 328 334 333 331 331 332 331 331 333 333 331 331
337 337 338 341 345 344 345 345 346 345 346 345 344 342 341 341 341 343 342 341 338 337 340 340 340 341 339 337 336 339 339 339 339 339 341 341 341 341 341 343 344 343 343 343 343 343 342 342 342 342 341 340 340 340 338 336 335 334 333 333 333 334 334 335 337 335 329 328 328 329 329 328 329 330 331 330 331 330 330 329 329 331 329 329 330
337 337 338 342 346 343 345 344 346 346 346 345 344 342 342 341 340 341 342 340 339 338 341 342 340 337 341 340 340 340 341 340 340 340 340 340 340 341 344 344 343 341 341 342 341 342 341 340 340 340 340 340 339 338 336 336 334 334 333 333 333 334 335 335 336 331 327 327 328 327 327 332 327 327 329 332 332 330 331 332 329 330 329 329 330
337 336 342 344 347 342 345 345 346 346 345 344 342 342 342 341 340 341 342 340 339 339 342 342 341 339 338 339 341 341 341 341 341 340 339 340 342 342 342 342 342 343 342 342 341 341 340 341 340 340 340 339 337 335 335 334 334 333 333 332 332 333 334 336 331 327 327 327 327 327 327 333 327 329 333 332 331 330 331 331 332 329 329 328 329
335 338 343 346 346 341 344 345 345 345 344 344 343 342 341 340 339 337 337 340 339 340 341 340 339 339 340 341 341 341 340 340 340 338 338 340 340 339 342 341 342 341 341 341 340 339 339 340 339 338 338 338 336 335 334 334 333 333 332 332 332 333 334 333 328 327 328 327 328 328 327 329 328 328 332 332 330 331 328 328 329 329 329 330 329
335 342 344 345 346 341 344 345 345 345 344 343 343 342 341 341 340 338 338 342 342 342 340 337 337 339 338 339 339 339 339 339 338 337 338 338 338 339 342 341 341 340 341 340 339 338 339 339 339 338 338 337 335 335 334 334 333 333 332 332 331 333 332 332 328 327 327 328 328 329 328 330 329 331 331 331 332 331 329 330 329 328 330 329 329
336 341 343 345 345 344 340 342 344 345 344 343 342 342 341 340 340 338 339 341 342 341 339 337 336 335 337 337 337 336 336 337 337 337 337 338 340 342 341 340 340 339 339 339 338 338 338 337 337 337 337 337 336 335 334 334 334 333 333 332 332 332 330 331 329 327 327 327 328 327 328 330 332 331 331 331 331 330 329 331 331 330 328 328 329
336 342 344 344 344 345 342 339 343 342 343 343 343 342 341 340 340 340 343 343 342 342 340 338 336 336 336 336 336 336 337 338 338 338 338 338 338 338 339 338 339 339 339 338 337 337 337 337 337 337 337 337 336 336 335 335 334 333 333 332 332 330 328 329 327 327 327 327 327 327 329 330 333 335 332 330 329 330 331 332 331 331 330 328 326
338 341 342 342 344 344 346 343 337 338 340 341 341 342 342 340 341 342 343 342 341 341 340 338 337 336 336 336 338 338 338 338 338 337 340 338 337 337 337 338 337 337 337 337 338 337 337 336 336 337 336 337 337 336 336 334 333 333 332 331 329 329 327 326 328 327 326 327 327 328 328 329 331 336 337 333 331 329 330 332 331 332 329 328 328
336 339 337 341 344 343 344 344 339 333 334 336 337 339 341 341 342 344 343 342 340 340 340 338 336 340 343 342 341 340 339 339 339 339 339 338 337 337 338 336 337 337 337 337 337 337 336 336 337 336 336 336 335 335 334 334 332 332 331 329 328 329 326 324 328 328 327 328 328 327 328 327 333 335 336 335 336 335 331 331 331 331 329 327 330
336 336 335 338 342 343 342 344 343 343 342 337 333 336 339 341 341 342 343 342 342 342 341 340 340 341 341 341 340 339 338 338 337 337 338 337 336 336 339 336 337 337 337 337 337 336 336 335 335 335 334 334 333 333 332 331 331 331 330 329 327 327 326 324 329 328 328 330 328 328 327 330 333 334 335 334 335 335 333 330 331 331 331 332 331
333 333 334 335 339 340 341 343 343 343 342 340 340 341 333 337 339 340 341 341 341 340 339 337 338 339 338 336 336 334 333 333 334 335 335 336 334 332 335 336 336 335 336 336 335 334 333 333 333 333 333 333 332 331 331 331 330 328 328 328 325 324 321 326 329 329 328 326 329 327 328 331 332 334 334 334 335 336 334 332 331 330 330 331 332
333 334 333 334 335 336 337 340 341 342 342 339 340 340 333 332 335 336 337 338 338 337 335 334 333 333 332 331 330 333 330 333 329 333 331 333 331 331 332 335 334 334 334 335 335 334 333 332 332 331 331 331 331 331 330 330 328 328 326 326 325 320 333 328 329 328 327 326 329 328 329 331 333 334 334 334 335 335 335 333 332 332 333 333 333
332 333 334 333 334 333 332 334 336 338 341 339 339 340 339 331 331 329 331 333 334 333 331 326 325 325 328 326 329 333 334 332 334 333 329 333 324 327 331 335 335 335 334 334 335 335 334 333 332 331 330 329 328 328 329 328 327 328 326 325 320 332 329 329 329 328 328 328 328 328 330 329 331 332 333 334 335 335 334 334 334 334 335 335 334
330 331 333 333 332 333 333 332 333 335 338 339 339 340 339 336 338 339 338 335 330 329 334 337 336 337 327 333 335 332 332 332 332 335 333 334 330 324 329 333 335 334 335 334 334 333 332 332 331 331 332 329 325 330 327 323 325 326 323 320 332 328 329 328 328 328 328 328 327 326 329 329 330 332 333 333 334 335 334 333 334 334 334 334 334
327 330 331 332 333 333 333 332 333 333 337 337 339 339 338 337 337 335 336 331 336 337 335 335 335 335 335 334 332 333 333 332 336 335 333 321 326 323 327 329 330 330 331 331 331 331 331 330 329 329 331 328 331 334 331 332 331 320 319 332 328 328 328 327 327 328 328 328 329 326 327 328 330 332 333 333 333 333 332 333 334 334 334 334 333
327 329 330 333 333 332 333 333 333 333 334 335 336 335 336 336 334 332 334 334 335 335 334 335 333 334 335 333 332 333 333 335 327 328 330 334 326 321 323 324 325 326 327 329 326 328 328 327 327 326 326 332 331 330 329 329 328 329 329 327 328 329 329 329 329 329 329 330 330 324 326 327 330 331 333 333 333 333 332 332 333 333 333 334 334
328 329 329 330 332 333 332 333 333 333 334 333 333 332 334 334 335 333 334 334 334 334 334 335 335 334 333 333 333 333 333 332 332 332 334 332 333 333 331 333 333 332 323 333 332 332 328 332 331 327 332 331 330 329 328 327 328 329 328 329 329 330 330 330 329 329 330 330 330 323 324 326 329 331 331 333 333 332 332 333 334 334 333 333 333
329 327 328 329 332 333 333 333 333 333 333 332 331 331 333 332 333 333 333 334 335 334 334 333 334 335 334 334 333 333 333 333 333 332 332 332 332 332 333 333 333 332 328 331 331 332 332 331 330 330 329 330 329 328 328 328 329 329 329 330 329 329 329 329 328 328 329 329 331 323 325 326 327 329 331 333 333 332 332 333 334 334 334 334 334
329 327 329 329 330 332 333 334 331 332 332 332 332 331 331 331 332 332 333 333 334 333 332 332 333 334 334 334 332 331 331 331 331 332 331 332 331 332 331 331 332 331 329 330 330 330 329 329 328 329 328 328 328 329 328 330 331 330 329 329 328 327 327 327 327 327 328 330 327 320 325 326 325 327 330 331 332 332 333 332 333 333 333 333 334
330 327 328 328 330 330 332 333 332 332 332 332 331 331 331 331 332 331 332 333 333 332 331 331 333 332 334 333 330 331 330 330 330 330 331 331 331 330 332 330 331 330 330 330 330 328 327 327 328 327 326 328 328 328 329 329 330 330 329 328 328 327 327 327 328 329 329 329 330 321 322 323 323 326 328 330 332 332 332 332 332 333 333 333 333
330 328 329 328 330 331 331 331 332 331 332 332 331 331 331 332 332 331 331 331 332 333 333 333 333 332 332 333 331 331 330 329 330 330 332 331 332 329 329 329 330 330 330 328 329 328 327 327 327 328 329 329 329 329 329 329 329 328 328 328 328 327 327 328 329 329 330 329 330 325 320 321 323 324 326 328 330 331 331 331 332 332 333 333 332
331 331 330 329 330 330 330 330 330 331 332 332 331 331 332 331 332 332 331 332 332 333 334 333 333 330 331 332 332 332 330 328 330 331 331 332 332 331 330 331 329 331 330 330 328 329 329 328 328 329 330 330 329 330 329 329 328 328 328 328 327 326 328 328 328 328 330 329 329 328 317 320 322 323 324 326 327 329 330 330 331 331 332 332 332
333 332 332 330 331 330 330 330 331 332 332 332 332 332 332 332 332 333 333 332 332 333 333 332 332 332 332 332 332 332 331 330 331 332 332 332 332 331 330 330 330 330 331 331 331 331 330 330 329 329 330 330 329 329 328 328 327 327 327 328 327 327 327 328 328 329 329 329 328 328 329 317 320 321 323 324 325 326 327 328 328 329 330 330 331
332 332 333 334 331 330 330 330 330 331 331 331 332 332 332 331 333 333 333 332 331 332 332 332 329 332 333 334 333 331 332 332 333 333 333 332 332 331 332 331 331 331 331 330 331 331 330 331 331 331 331 330 328 328 329 327 326 326 327 327 327 327 328 328 328 328 328 328 327 327 327 326 316 320 320 322 323 323 324 325 325 326 327 328 329
333 334 334 334 333 331 330 330 331 331 330 329 331 331 332 332 332 333 333 333 332 332 331 331 332 332 333 334 333 333 331 333 333 334 333 332 332 331 331 331 331 331 331 331 331 332 331 330 330 331 329 329 328 327 329 327 325 326 326 327 327 327 328 328 328 327 326 326 326 326 326 326 326 315 317 319 320 321 322 323 322 323 325 326 327
334 334 335 333 334 334 332 332 331 331 330 330 330 331 332 332 332 332 332 333 332 331 331 332 331 331 333 333 333 333 333 332 334 334 333 332 332 331 331 330 331 332 332 331 330 330 329 329 329 328 325 326 326 326 326 325 325 326 326 327 327 327 328 328 327 327 327 326 326 326 325 325 324 323 323 316 318 318 319 320 319 322 323 323 323
334 334 334 334 334 334 334 332 331 331 331 330 330 332 333 333 331 332 331 333 332 331 331 332 332 332 332 333 333 333 333 334 335 334 333 333 331 331 331 331 331 332 331 331 330 329 329 328 327 326 326 325 326 326 326 325 324 324 325 326 326 327 327 327 329 328 326 327 325 325 325 323 322 321 322 320 312 314 317 318 317 320 321 321 321
333 334 334 335 334 334 335 334 333 332 332 330 331 332 332 333 333 329 332 333 331 332 332 332 332 332 332 333 334 333 333 332 333 334 333 332 331 331 331 331 332 331 331 330 330 328 327 328 328 327 325 325 325 325 325 323 323 323 325 326 326 327 326 327 328 326 325 326 325 324 324 323 322 320 316 317 316 315 314 317 315 315 318 320 319
333 334 334 334 334 334 334 334 334 333 332 332 333 332 333 333 333 333 333 333 332 332 332 332 332 332 332 332 334 333 332 332 331 333 332 332 331 331 331 332 332 331 329 329 328 329 327 327 325 326 326 324 323 322 323 323 324 324 325 326 327 327 327 327 326 325 327 325 324 323 322 322 320 314 316 316 314 314 313 314 315 314 314 317 317
333 333 334 333 333 333 334 334 335 334 334 334 333 333 333 333 334 334 333 332 333 333 333 333 332 331 332 332 334 334 333 332 331 332 331 332 333 332 331 331 331 331 330 329 328 329 328 326 325 326 326 325 323 322 322 323 325 325 325 325 326 326 327 327 325 323 323 322 323 322 320 318 317 316 315 315 312 313 315 314 312 311 311 314 314
333 333 334 334 334 333 333 333 334 334 334 334 334 334 334 334 334 334 334 333 333 334 334 334 334 334 334 335 335 335 334 334 333 331 331 331 332 332 332 332 331 330 329 328 328 328 328 327 326 326 327 325 325 325 323 324 324 324 324 324 326 326 326 324 324 324 323 323 321 320 321 318 316 315 314 312 311 313 313 312 313 312 311 311 313
332 332 332 334 333 333 333 332 333 333 334 334 334 332 332 331 331 333 332 332 332 331 333 335 336 336 336 336 336 336 335 334 334 333 332 332 332 331 331 332 331 330 328 327 326 326 326 327 326 326 326 326 326 326 325 324 324 323 323 324 325 325 324 324 323 323 323 323 322 320 314 316 314 314 313 313 312 314 312 312 310 311 311 311 312
331 332 331 332 332 332 331 330 332 333 332 332 332 332 330 330 330 331 330 332 332 332 331 333 335 335 336 337 337 336 336 335 334 334 333 330 332 332 331 331 331 330 329 327 328 328 328 328 327 327 325 324 324 326 326 325 322 320 322 322 322 323 323 323 321 322 321 321 321 316 313 312 313 313 313 313 313 313 310 311 310 310 310 312 310
329 330 330 330 331 331 331 331 331 331 331 331 331 332 333 332 330 330 331 332 332 331 330 331 333 335 336 337 337 336 337 336 334 335 334 333 332 331 332 331 331 330 330 330 329 325 329 329 329 326 327 325 324 326 325 323 320 318 316 316 318 320 322 321 321 320 321 321 318 314 315 311 311 313 315 311 312 310 309 310 310 309 310 309 308
329 329 330 330 331 331 331 331 332 331 331 331 331 331 333 334 333 333 332 332 334 334 333 332 333 334 336 337 336 336 336 336 336 335 334 334 333 332 332 332 332 331 329 329 329 328 329 329 328 325 324 325 324 326 325 324 319 321 320 317 315 313 317 319 320 320 319 318 316 312 312 312 310 314 315 311 310 309 309 310 309 309 309 309 308
328 329 329 330 330 330 331 331 332 332 332 332 330 333 334 335 335 335 335 334 332 334 334 334 334 334 334 336 337 336 336 336 336 336 334 334 334 333 333 332 332 332 331 329 329 329 329 328 328 327 325 321 322 322 324 325 323 320 314 315 313 312 309 312 315 317 317 314 310 308 308 309 312 315 313 309 310 308 307 309 308 308 308 308 308
328 328 329 329 330 331 331 332 332 332 333 332 332 332 333 333 333 335 335 334 334 333 333 332 332 333 333 334 335 336 336 335 336 336 335 334 334 334 333 333 332 332 331 330 329 329 329 329 329 327 325 322 320 323 321 323 323 324 319 314 311 309 310 311 310 312 314 311 309 310 310 312 311 312 308 309 312 308 306 307 307 308 308 308 308
328 329 330 330 330 331 332 332 333 333 332 333 333 332 331 330 330 329 328 328 328 329 328 328 330 330 331 334 335 335 335 335 335 335 336 333 334 335 334 333 332 331 331 330 330 329 329 329 329 327 325 325 323 323 318 319 321 323 323 321 318 314 312 313 309 306 312 316 313 310 310 312 306 311 308 307 310 307 306 306 308 307 308 309 308
327 329 330 330 331 331 332 332 332 332 334 334 334 332 331 331 330 329 329 328 327 328 331 332 331 331 333 333 334 335 335 335 334 335 335 335 334 334 334 333 333 332 331 331 330 329 329 329 329 327 326 326 325 321 319 316 318 320 322 321 320 320 318 313 309 311 305 307 310 308 308 310 309 308 305 305 306 306 306 307 309 309 308 308 305
327 328 329 330 330 330 331 332 332 332 333 334 334 333 331 331 330 330 329 329 329 329 330 331 332 331 331 332 333 333 334 334 333 333 334 335 334 334 334 333 332 332 330 330 330 330 329 330 329 328 328 326 324 323 320 318 316 317 319 318 318 317 316 316 314 311 309 303 302 307 308 305 307 304 303 304 303 305 307 307 308 309 307 306 303
323 326 328 329 330 331 331 332 332 332 332 334 333 333 331 331 331 330 329 329 330 330 330 330 330 331 330 331 331 332 332 333 333 333 334 334 334 334 334 333 331 331 330 330 330 330 329 329 328 327 326 326 325 324 323 319 319 318 316 316 316 314 314 314 313 312 306 303 301 302 302 306 306 303 301 304 304 306 307 306 306 307 306 304 303
319 323 325 327 329 330 330 330 331 332 332 332 332 333 333 330 330 330 329 329 328 329 329 329 329 330 329 330 330 330 331 331 332 333 334 334 334 333 332 332 332 331 327 329 330 330 329 329 328 326 326 325 325 324 323 322 321 320 317 316 313 312 310 309 309 308 307 307 303 303 304 299 299 300 305 303 304 304 306 305 304 305 306 302 302
316 318 320 322 325 327 328 328 329 330 331 331 332 332 332 331 329 329 329 328 329 328 326 327 328 328 328 329 329 329 330 330 331 332 333 334 334 332 332 332 333 330 327 329 329 329 328 328 327 326 325 324 322 323 322 322 321 319 317 316 314 312 309 307 307 306 304 300 299 299 303 303 300 299 303 303 303 303 304 304 302 302 305 302 301
Wind_Speed
6 6 7 6 5 6 5 7 8 10 10 11 11 11 13 13 13 13 13 13 13 13 13 13 12 11 13 14 13 16 17 17 18 17 17 16 16 16 16 16 17 18 18 17 17 17 18 17 17 18 18 18 19 19 20 20 20 20 19 18 18 17 17 16 15 14 15 17 19 19 19 19 19 17 18 18 17 17 17 19 13 14 12 14 19
8 7 7 6 7 3 8 8 10 9 10 11 10 12 13 13 13 12 11 11 13 13 13 13 13 12 12 13 12 14 14 16 16 16 16 16 15 15 15 15 15 16 16 16 17 17 18 18 17 18 18 19 19 19 19 19 19 18 18 18 17 17 16 15 14 11 10 13 19 19 19 18 18 18 18 17 17 19 17 18 18 13 10 17 18
9 8 7 7 3 4 6 7 9 9 8 11 11 11 12 13 13 13 12 11 12 14 13 13 13 13 12 12 12 12 12 12 15 15 15 15 15 15 16 16 16 16 16 16 17 17 17 17 17 18 19 18 18 18 18 18 18 17 17 17 17 16 15 15 13 11 10 7 8 18 17 19 19 19 18 18 18 19 16 16 16 16 12 17 16
9 8 7 6 2 3 7 9 9 10 10 11 12 11 10 10 13 13 12 11 13 12 12 12 13 12 12 12 13 13 12 12 13 15 15 14 14 14 14 14 15 15 16 17 18 18 18 17 17 17 18 18 18 17 17 18 17 17 17 17 16 15 14 13 11 11 10 9 7 12 9 12 14 18 16 16 19 18 15 18 17 17 16 14 17
9 8 8 7 7 7 9 10 10 10 11 11 11 11 11 12 12 12 12 11 12 13 13 11 10 14 13 13 13 12 13 13 13 14 13 15 15 13 13 15 16 17 17 17 17 17 17 17 17 18 18 18 17 17 17 17 17 17 17 16 16 15 13 11 10 10 11 10 9 12 9 12 10 16 15 19 18 16 16 16 16 15 13 14 19
8 8 8 8 7 7 8 10 11 11 11 12 11 11 12 12 12 12 11 14 13 12 12 13 13 13 13 11 13 15 14 13 13 13 16 13 13 14 14 14 17 17 17 17 18 17 17 17 17 17 17 17 17 17 17 16 16 16 16 15 14 13 12 11 10 10 9 9 4 8 10 11 10 10 17 18 17 14 16 16 14 15 17 17 17
9 6 7 8 7 7 7 10 11 12 12 12 12 12 13 12 12 11 11 12 13 12 12 12 13 13 13 13 13 13 12 13 13 14 14 16 14 13 13 13 14 14 16 16 16 16 17 16 16 16 16 16 16 16 16 16 16 15 15 14 13 12 11 11 11 12 13 9 8 9 9 11 10 8 15 17 15 14 15 15 18 18 16 16 16
7 5 7 8 7 8 8 11 11 12 12 13 12 12 12 11 12 13 11 13 12 11 13 13 12 13 14 14 14 14 12 12 13 14 14 13 12 14 14 14 16 16 15 16 16 16 16 16 15 16 16 16 16 16 15 15 14 14 14 13 12 11 10 10 9 7 12 9 8 8 9 9 11 9 16 16 15 14 15 14 15 18 15 15 11
8 7 8 9 9 10 9 10 11 11 13 13 12 11 11 12 13 13 12 11 10 10 12 12 13 12 11 11 11 12 13 12 12 13 13 12 13 13 14 14 14 14 16 16 16 16 16 16 15 15 15 15 15 14 14 14 14 14 14 14 12 11 11 12 12 3 9 9 10 10 9 10 11 9 13 12 15 14 15 13 12 15 14 11 13
8 7 9 8 8 9 9 10 11 12 14 13 11 11 12 12 12 13 13 12 11 11 12 12 12 12 13 13 12 13 12 12 12 11 10 12 12 14 14 15 15 14 14 14 14 15 15 15 14 15 15 14 14 14 14 14 14 14 14 14 13 12 13 12 5 11 8 9 11 11 11 12 9 8 10 15 15 12 12 9 9 8 8 11 16
8 8 8 9 10 8 11 12 11 10 13 12 11 11 12 12 11 13 12 11 11 11 13 11 11 11 11 12 13 13 12 12 11 10 9 11 13 13 14 13 13 13 13 14 15 14 14 14 14 14 14 13 14 13 13 13 14 14 14 13 12 13 12 11 8 8 9 10 10 9 8 9 10 10 14 17 14 13 14 13 13 13 13 14 13
8 9 9 9 11 8 10 10 10 12 11 12 11 11 12 11 10 9 8 12 12 12 12 12 11 12 12 12 12 12 12 11 10 10 10 12 12 12 13 13 12 13 14 14 14 14 14 14 14 13 13 13 13 13 13 13 13 13 12 11 10 11 12 10 9 8 9 10 9 8 9 11 9 10 15 13 12 13 11 11 12 13 12 13 13
9 10 9 9 10 8 9 9 8 10 10 11 10 9 9 10 10 9 10 13 13 11 11 10 11 12 12 12 12 12 11 11 10 10 9 10 10 11 13 13 12 12 13 13 13 12 13 13 13 13 12 12 12 12 12 12 12 12 11 10 10 9 11 12 8 9 8 9 7 7 9 8 9 11 11 12 13 12 11 12 12 11 12 12 12
9 9 9 10 9 9 7 7 6 8 8 9 10 9 8 9 10 10 11 12 12 12 11 11 10 9 11 10 11 10 10 10 10 9 8 9 12 12 12 12 12 12 12 12 12 12 13 13 12 12 11 11 11 11 11 11 11 11 10 10 10 9 9 6 9 7 7 7 7 8 8 7 9 11 11 10 12 10 10 13 15 13 11 10 11
10 9 10 10 10 10 8 7 5 7 7 7 8 8 9 9 10 11 13 13 12 11 11 11 11 11 10 10 9 10 10 10 10 9 8 8 9 10 11 11 11 11 11 11 11 11 12 12 11 11 10 10 10 10 10 10 9 10 10 9 10 11 13 6 7 8 7 6 7 7 7 5 13 13 11 8 7 8 10 14 12 13 11 10 9
10 10 10 10 10 10 9 7 7 8 7 6 6 6 7 8 7 11 11 12 12 12 11 11 11 11 10 11 11 11 11 10 9 8 5 7 8 8 10 10 10 10 10 10 11 11 12 11 11 10 9 9 9 9 9 9 9 8 8 8 8 10 11 9 6 6 6 6 5 5 6 7 14 13 12 10 8 5 9 11 10 13 11 8 10
9 9 9 10 11 10 10 10 8 9 7 6 6 6 6 6 5 6 9 10 11 11 11 11 10 11 14 15 13 12 11 11 11 10 10 9 8 7 7 9 10 10 10 10 11 11 11 10 10 10 10 10 10 9 8 8 7 7 6 5 7 8 10 10 5 6 5 5 4 5 7 6 10 12 12 10 11 11 6 9 10 11 9 5 10
8 8 9 9 9 9 9 10 9 10 8 7 6 6 6 7 7 8 9 9 10 10 9 9 11 11 11 11 11 11 11 11 10 10 9 7 7 5 4 9 11 11 10 10 11 11 10 9 10 10 10 10 9 9 8 7 6 6 4 4 4 5 8 10 5 4 5 5 5 5 5 8 10 10 11 10 11 11 9 7 10 10 12 11 11
8 8 8 9 9 7 9 9 9 8 10 7 7 5 6 7 8 9 9 10 10 10 9 10 11 11 10 11 9 9 9 9 9 8 8 7 6 9 9 8 8 9 9 10 10 10 9 9 9 9 9 8 8 7 7 6 5 4 3 2 5 7 8 6 5 4 4 4 4 6 5 7 9 11 11 10 10 12 11 9 9 8 9 11 12
7 7 7 7 8 8 7 6 7 8 7 7 7 7 5 7 8 8 8 9 10 9 9 9 10 10 11 11 11 9 8 7 9 8 8 9 8 7 8 6 7 7 8 8 9 10 9 8 7 7 6 6 6 5 5 4 4 3 2 4 7 7 5 3 3 4 4 4 4 6 7 8 10 11 11 12 10 10 11 11 9 9 10 11 11
6 7 7 7 7 8 8 7 7 7 6 6 6 7 7 8 7 7 8 8 9 9 9 9 8 8 8 9 9 7 6 6 7 6 7 6 7 8 8 8 7 7 7 7 8 9 8 7 5 4 3 3 3 5 5 4 2 1 2 6 8 5 3 3 3 3 3 4 3 6 6 8 9 10 11 11 12 11 10 11 11 11 12 12 13
6 6 7 7 7 7 8 7 7 7 6 5 5 6 6 6 7 7 6 6 7 8 8 7 7 6 6 6 6 5 5 6 6 8 7 7 6 7 8 8 8 7 7 7 7 7 6 5 3 2 0 2 5 4 5 4 5 5 6 8 6 4 3 4 3 3 3 3 3 5 5 7 9 9 9 10 11 12 12 12 13 12 11 11 12
7 6 6 8 7 6 7 7 7 8 7 7 5 5 8 6 6 6 6 7 7 7 6 6 6 6 5 5 4 4 5 4 5 6 6 8 7 6 8 8 7 6 5 5 4 4 3 3 1 1 3 6 6 3 2 2 4 7 7 6 3 3 3 3 3 3 3 4 2 6 5 7 9 9 9 10 11 11 11 12 12 13 14 14 13
7 6 7 6 7 6 7 7 7 8 8 7 5 6 6 6 5 5 5 6 6 6 5 6 5 6 6 5 4 4 4 6 5 6 6 5 5 7 7 8 8 6 6 4 5 3 2 3 4 5 5 4 2 2 2 1 2 2 2 4 3 4 4 5 4 5 5 2 4 6 5 7 8 9 9 10 10 11 12 12 12 12 13 14 14
6 6 6 7 8 7 7 6 7 7 8 7 7 6 6 5 5 4 4 5 6 5 5 5 5 6 5 4 4 4 4 4 5 5 6 5 5 5 5 5 5 5 5 4 4 5 5 4 4 5 5 1 1 1 1 2 2 2 3 4 4 4 4 4 4 4 4 5 5 7 4 5 8 9 10 10 10 11 12 12 13 14 13 13 14
7 7 7 8 8 7 8 7 7 8 8 7 7 6 6 6 5 5 4 4 5 5 5 5 5 6 5 4 4 4 4 3 4 3 3 3 3 3 4 3 2 3 4 3 3 3 4 3 3 3 2 1 1 1 1 2 3 3 3 3 4 4 4 4 4 4 4 4 4 7 3 6 8 9 9 10 10 11 11 12 12 13 14 14 14
7 7 7 7 8 8 8 8 8 8 8 7 6 6 7 6 5 5 4 5 4 5 5 5 5 6 5 5 5 4 4 4 4 4 4 3 3 3 3 3 3 2 2 2 2 2 3 2 2 2 1 1 2 1 1 1 3 4 4 4 4 5 5 4 4 4 4 4 2 8 5 6 8 8 9 9 10 11 11 11 12 12 13 14 14
6 7 7 7 8 10 10 9 9 8 8 7 6 6 6 6 5 5 5 4 4 5 5 5 5 5 6 5 5 4 5 4 4 4 4 3 3 2 2 2 2 2 2 1 1 2 2 2 1 0 1 2 1 2 3 3 4 4 4 3 4 4 4 4 4 4 4 3 3 7 7 5 6 8 9 10 10 11 12 11 12 12 12 13 13
8 8 7 7 9 9 10 10 9 10 8 8 7 5 5 6 6 5 6 5 5 4 4 5 4 5 6 6 6 5 5 4 5 5 4 4 3 3 3 3 2 2 2 2 2 2 2 2 2 2 1 2 2 3 3 4 4 4 4 4 4 5 3 4 4 4 3 3 4 5 7 7 6 8 9 11 12 12 13 13 13 13 13 14 14
9 8 8 7 8 9 10 10 10 9 8 8 7 6 6 6 6 6 6 6 5 5 5 5 5 5 6 6 6 5 4 5 5 4 4 4 3 3 3 3 3 2 2 2 2 2 2 2 1 2 3 3 3 2 2 5 5 5 4 4 4 5 4 3 4 4 4 4 5 3 9 6 4 7 10 11 13 13 13 13 13 14 15 15 15
10 11 9 8 7 9 9 10 10 9 8 8 7 6 6 6 6 6 6 6 5 5 5 5 5 5 5 7 6 6 5 5 5 5 4 4 4 4 4 3 3 3 2 2 1 2 2 3 3 4 3 3 3 3 4 4 5 5 5 3 4 4 4 4 4 4 4 4 3 3 6 7 4 5 9 11 12 12 13 13 14 14 14 14 15
10 11 9 8 8 10 10 10 10 9 8 8 7 6 6 6 6 6 6 6 6 6 5 5 5 5 5 5 6 6 6 5 5 5 5 5 5 4 4 4 3 4 3 3 3 3 3 3 1 2 3 4 4 4 4 5 5 5 3 3 3 4 4 3 4 4 3 3 2 2 3 4 6 6 5 8 12 12 12 13 14 14 13 14 14
9 11 10 11 11 10 9 10 10 10 10 10 8 7 6 6 6 6 6 6 6 6 6 6 6 5 5 6 6 6 6 5 5 5 5 4 5 4 4 4 4 4 3 3 2 3 3 3 3 3 4 5 5 6 5 4 4 4 3 3 2 3 3 3 3 3 3 2 2 2 2 4 4 7 8 7 10 12 12 13 13 13 14 14 14
9 9 11 11 9 7 7 8 10 11 11 9 8 7 7 6 6 6 6 7 6 6 6 6 6 6 6 7 7 7 6 6 5 6 5 5 5 5 5 5 4 2 1 2 4 5 4 4 4 4 4 5 5 4 4 4 4 5 4 3 2 3 3 2 2 3 2 2 2 3 3 4 3 3 4 7 10 12 12 12 13 14 14 15 15
10 10 12 12 12 9 8 7 9 11 11 10 9 8 7 7 7 6 6 7 6 6 6 6 6 6 7 7 8 7 7 7 6 5 6 5 5 5 5 5 4 3 3 4 4 4 4 5 5 5 5 5 4 4 4 4 5 5 3 2 3 3 3 2 1 1 2 1 3 2 3 3 4 3 3 5 7 11 9 11 14 14 14 15 17
13 11 11 11 13 13 11 9 10 11 10 10 9 8 8 7 7 7 6 7 6 6 6 6 6 6 7 6 9 8 8 8 7 6 6 6 5 5 5 5 4 4 4 5 4 5 4 4 4 4 4 5 5 4 4 4 4 4 2 2 2 2 3 2 1 1 2 2 2 2 2 3 3 3 3 3 4 7 9 8 12 14 14 16 17
13 12 12 12 12 13 12 12 12 11 11 11 9 8 8 8 8 7 7 6 7 6 6 6 6 7 7 7 8 8 8 8 8 7 6 6 6 5 5 6 5 5 5 4 5 4 4 3 3 3 3 4 4 4 3 3 2 3 3 3 2 2 2 2 2 2 1 2 2 3 2 2 3 2 3 3 3 4 7 8 10 12 13 15 17
13 13 13 12 12 12 13 13 12 11 10 10 10 9 8 8 7 7 7 7 7 6 6 7 7 7 7 7 7 8 8 8 8 8 7 7 6 6 6 5 4 4 4 5 5 4 4 4 4 3 3 3 4 3 3 3 2 3 4 3 3 3 2 2 2 2 1 1 3 2 2 2 3 3 3 3 3 3 3 8 12 14 12 14 17
11 14 13 12 11 11 11 12 12 13 11 10 11 10 10 9 9 9 9 9 8 7 7 7 7 7 7 7 7 7 7 8 9 9 8 7 7 7 6 7 6 6 5 5 5 5 5 5 5 4 2 2 3 3 3 3 3 3 4 4 4 3 2 3 1 1 1 2 2 1 2 2 2 3 2 3 3 3 3 3 2 4 7 12 15
12 12 14 14 13 12 12 12 13 14 13 11 9 10 9 10 10 10 10 9 8 8 7 7 8 8 8 8 8 7 8 8 9 9 8 8 8 7 8 8 7 7 6 6 6 5 6 6 6 5 4 3 2 2 2 3 4 5 5 4 2 1 0 1 1 2 1 2 1 1 2 2 2 2 3 2 3 2 3 3 3 3 4 9 13
12 13 14 15 14 13 12 14 13 14 12 11 12 10 10 10 10 12 11 10 7 7 8 8 8 9 8 9 9 8 9 9 9 9 9 8 8 7 8 8 8 7 6 7 6 6 5 5 5 5 5 5 4 3 2 1 4 4 4 3 3 2 4 4 4 2 1 2 1 2 2 2 2 2 2 2 2 3 3 3 3 3 3 2 7
14 15 16 16 15 15 15 14 13 14 15 15 13 12 12 11 10 10 10 10 8 8 10 9 9 9 9 9 10 10 10 10 9 9 9 9 9 8 8 7 7 8 7 7 7 6 6 5 4 6 5 5 5 4 3 2 5 3 2 3 4 4 5 4 5 3 3 2 2 2 1 2 3 2 1 2 2 3 3 3 3 3 3 3 4
15 16 15 14 15 15 15 14 13 13 12 13 12 13 12 11 11 9 11 9 10 10 10 9 9 10 11 12 12 12 11 10 10 9 8 9 9 9 8 7 7 7 7 8 8 8 7 6 6 6 5 5 4 3 3 5 4 0 1 3 4 5 3 3 3 3 3 2 2 2 2 2 3 2 1 2 2 3 2 3 3 3 3 3 3
13 13 14 16 14 14 14 15 13 13 12 13 12 13 12 12 12 11 10 10 9 9 9 9 10 12 12 11 11 11 11 11 10 10 9 8 8 9 9 8 8 8 9 9 8 7 7 7 7 8 7 6 5 5 5 6 6 3 4 4 1 2 4 5 4 4 4 4 2 3 2 2 1 1 1 2 2 2 3 2 3 3 3 3 3
13 14 14 15 12 17 16 16 14 14 13 13 14 12 11 11 11 9 9 9 9 9 10 10 11 10 10 11 13 11 12 12 11 12 11 10 10 9 9 9 9 9 8 9 9 9 8 8 7 7 7 7 7 5 5 6 7 6 4 3 4 4 2 5 2 4 4 3 3 2 2 1 1 1 2 2 1 2 2 3 3 3 3 3 3
13 14 14 16 15 13 14 15 14 13 14 15 15 13 12 13 12 12 12 12 12 12 12 13 11 12 12 10 12 13 13 12 12 12 12 10 10 11 11 10 9 9 9 9 9 8 8 7 7 8 8 8 5 4 4 4 6 6 5 4 5 3 2 3 1 4 3 1 3 2 2 1 1 1 2 2 1 2 2 2 2 2 2 2 2
15 12 12 13 14 13 14 15 14 12 13 14 16 13 14 12 14 15 13 13 14 12 12 11 11 11 10 11 11 11 12 11 11 11 11 11 11 11 10 9 8 9 9 9 9 9 8 8 7 6 7 4 4 6 6 5 2 4 5 4 3 3 2 2 3 1 5 3 2 3 3 1 1 2 2 2 2 2 2 2 1 2 3 2 2
9 9 11 11 14 15 13 14 13 12 12 13 15 15 14 13 14 14 12 12 12 11 11 11 11 10 11 10 9 10 8 9 11 11 11 12 11 11 10 9 11 11 8 9 9 8 7 5 6 7 6 5 7 7 7 6 6 4 6 6 5 2 2 2 2 3 3 3 6 3 2 3 2 2 2 2 2 2 1 2 1 1 3 2 2
9 10 10 10 11 12 13 13 14 14 13 15 14 16 14 13 13 12 12 11 11 10 9 8 10 11 13 11 11 11 10 11 11 11 11 12 8 7 8 9 9 9 8 8 7 8 8 7 7 6 7 6 7 7 5 7 7 6 7 6 4 5 3 3 3 2 3 1 3 5 3 2 2 2 2 2 2 1 1 2 2 2 2 3 2
7 8 9 8 9 10 12 14 15 12 12 14 14 15 15 12 12 13 13 11 10 9 10 10 11 11 13 13 12 11 10 11 12 12 11 12 10 11 9 9 8 8 7 8 8 7 6 6 7 8 7 9 7 6 6 6 7 5 7 6 6 5 4 3 5 4 3 3 1 1 1 1 2 2 1 2 2 1 2 2 2 2 2 3 2
5 7 8 8 8 10 11 14 14 11 11 13 14 15 14 13 13 13 13 13 12 12 11 12 12 12 13 12 12 12 11 11 10 10 12 11 11 11 11 10 9 7 6 7 6 6 7 8 8 10 9 8 6 6 5 5 6 6 6 6 6 7 6 5 6 6 4 2 2 2 1 1 1 1 1 2 1 0 0 2 2 2 2 2 2
Wind_Direction
113 126 110 84 338 146 109 89 85 90 100 97 95 87 88 87 83 81 83 84 82 80 78 78 83 75 70 66 74 76 78 76 75 76 75 74 74 75 75 78 78 75 73 72 73 73 74 73 72 70 70 68 65 63 63 62 61 61 61 61 60 61 60 58 58 57 60 62 65 61 55 55 57 56 54 53 52 45 36 30 39 54 50 47 39
139 122 133 119 5 120 96 91 91 99 104 99 89 97 93 90 90 92 90 87 90 91 86 84 81 77 79 77 68 71 70 80 77 72 69 69 72 79 79 74 74 77 75 76 74 71 69 69 70 70 69 67 64 62 62 61 61 61 60 60 59 58 57 53 49 45 42 61 80 72 61 56 60 58 54 51 53 49 41 39 41 50 47 48 47
125 132 128 111 19 33 102 99 97 104 107 103 100 101 99 99 100 91 88 91 85 82 85 85 87 87 84 85 83 81 78 81 76 73 73 74 72 70 81 84 82 78 77 76 74 72 71 69 69 69 67 66 64 62 61 61 62 60 60 58 57 56 55 51 42 31 24 15 76 79 71 63 53 55 52 49 52 54 48 47 42 51 50 46 48
128 121 125 113 68 67 109 98 112 120 118 108 108 108 103 99 97 98 92 81 83 91 92 85 83 86 88 87 83 79 79 76 74 75 77 79 79 77 74 82 88 84 81 79 75 71 69 69 71 71 69 67 66 64 63 63 62 60 58 57 55 54 51 44 29 10 357 345 1 75 61 66 56 56 53 54 55 55 53 51 45 44 46 44 48
124 123 125 138 139 93 95 108 122 125 115 110 114 105 100 98 95 89 90 94 89 88 87 89 89 81 77 78 81 77 76 80 81 83 82 75 75 78 79 69 73 76 77 76 76 73 74 74 72 70 68 66 64 63 64 63 61 59 57 55 53 51 47 34 20 357 330 327 34 57 61 64 54 50 52 58 54 51 52 53 46 46 49 46 49
123 127 138 140 137 115 99 120 128 128 122 121 116 108 102 100 98 98 95 94 92 93 94 90 85 84 82 77 78 73 74 78 86 86 83 85 85 81 81 81 82 83 82 79 78 77 74 72 72 71 69 68 66 65 65 63 60 59 56 54 53 49 39 21 0 348 315 277 68 70 63 63 57 54 49 48 46 52 53 49 50 49 48 49 53
127 136 131 131 138 119 113 128 132 131 128 126 121 113 110 105 102 99 103 102 96 88 86 89 89 88 89 86 82 84 85 93 87 88 84 74 74 76 72 81 91 88 79 78 80 80 76 75 73 72 72 70 67 66 64 62 61 58 56 53 50 45 32 13 358 338 29 54 57 64 63 60 68 66 49 46 40 40 55 55 50 44 43 41 40
122 133 125 130 127 121 126 133 135 136 139 131 123 119 113 110 105 100 94 90 95 95 90 86 86 83 85 84 83 82 85 87 89 86 86 85 81 78 76 77 77 78 83 82 82 82 79 75 75 74 72 70 68 67 65 63 61 59 55 51 46 35 17 4 353 334 63 58 53 57 69 62 62 52 48 48 48 48 38 47 48 52 41 42 40
134 138 129 125 110 108 126 135 137 134 131 125 119 119 114 109 107 107 104 101 93 92 92 90 91 93 95 91 94 101 98 96 92 96 93 89 86 84 87 93 96 94 87 86 82 80 77 76 75 76 74 71 69 67 65 63 61 57 52 49 42 29 12 0 331 353 75 68 62 52 38 66 63 55 50 53 55 52 46 39 42 48 46 28 47
133 136 127 132 126 122 132 140 136 132 127 124 122 122 118 114 112 110 111 104 94 91 97 96 95 93 86 93 90 87 88 89 88 85 81 94 87 80 70 63 64 74 82 84 80 77 76 78 79 77 74 72 71 68 66 62 59 55 51 46 35 18 5 352 335 39 54 64 75 57 44 45 56 66 60 49 67 54 45 55 58 47 49 45 47
138 130 119 118 127 129 140 141 139 129 127 123 126 123 120 119 116 118 122 117 108 107 101 100 96 96 96 94 95 92 88 87 88 94 93 90 88 82 77 78 84 87 87 84 82 80 79 78 78 77 77 75 72 69 65 61 58 54 50 45 32 19 2 342 55 58 57 54 49 63 79 68 54 51 51 48 42 45 36 21 32 32 35 31 32
135 123 123 114 124 126 133 139 141 132 126 124 124 123 124 123 116 117 114 108 110 108 107 109 104 95 99 98 95 93 92 88 90 95 102 104 100 93 87 90 86 83 80 80 82 82 84 83 81 80 78 75 71 68 65 61 57 53 49 39 23 7 351 350 62 52 52 58 60 62 55 57 43 42 44 41 43 55 46 49 31 21 32 31 35
139 126 125 130 132 119 134 140 139 129 128 128 125 124 128 128 123 124 123 113 111 115 113 105 107 107 95 93 95 96 99 101 98 95 98 97 97 96 88 87 85 83 83 83 84 86 84 82 80 78 76 74 71 68 65 61 57 52 45 33 18 1 354 329 54 62 59 46 51 56 56 54 43 46 46 47 51 44 39 41 38 33 31 29 36
140 130 132 132 129 121 117 118 131 126 121 121 124 121 123 125 127 131 121 113 114 116 116 108 99 104 102 100 100 102 102 101 97 95 97 104 98 97 97 90 86 84 81 81 84 83 83 83 81 78 74 71 69 67 64 60 56 50 39 23 8 349 343 269 69 64 60 64 51 58 61 53 7 46 44 53 46 46 34 32 27 30 26 29 23
138 136 123 127 135 135 112 100 100 113 112 113 117 123 120 121 125 119 114 116 117 120 119 115 113 110 113 118 112 103 101 100 101 100 108 117 118 104 98 94 89 88 84 82 78 78 79 78 77 75 72 70 68 66 63 60 55 46 39 26 0 349 352 17 52 56 57 51 57 57 67 51 8 12 23 42 60 29 22 39 24 26 29 21 48
140 136 140 135 135 142 143 109 92 99 103 104 108 112 115 116 113 123 122 122 124 124 121 120 120 119 122 118 108 110 104 100 98 89 77 94 95 100 102 98 97 93 93 90 88 82 77 76 75 73 72 69 67 65 61 58 53 47 39 29 354 352 339 331 59 56 53 38 43 60 56 40 3 3 6 16 41 45 8 30 23 17 43 18 10
142 151 145 135 143 147 145 144 112 103 90 91 93 94 104 101 89 96 132 129 127 128 126 122 120 96 86 90 92 93 93 88 81 68 54 58 75 71 89 100 96 92 85 85 82 79 77 76 74 72 70 67 64 62 61 55 52 49 41 13 10 334 325 326 65 59 50 65 46 37 62 22 353 357 3 21 16 14 16 13 23 359 31 42 4
149 159 150 150 147 149 148 143 144 145 135 115 91 79 91 92 91 102 107 108 116 120 121 115 103 96 94 89 90 87 86 81 77 68 64 58 48 39 88 104 90 86 85 84 82 80 78 74 71 71 72 72 71 70 67 64 54 51 35 15 329 324 293 308 46 58 65 21 50 52 45 7 348 350 356 14 15 11 25 26 12 5 349 356 358
163 166 156 156 151 155 145 155 165 159 154 156 149 100 87 95 98 106 108 110 109 112 108 105 106 102 98 98 91 92 88 83 74 70 68 60 83 71 57 80 93 93 93 90 90 87 84 79 76 77 77 79 80 78 72 64 58 43 26 316 300 279 297 284 49 14 59 28 10 71 26 0 350 345 352 5 15 8 16 15 12 6 345 347 346
169 169 162 169 162 169 162 162 168 170 171 157 150 139 93 92 99 103 105 111 115 113 112 108 108 110 112 116 118 118 114 108 108 88 71 66 57 72 72 83 103 109 105 98 98 96 92 86 84 85 86 86 92 87 77 71 64 40 331 299 272 283 276 53 350 60 359 72 328 67 28 355 351 346 347 347 3 5 2 6 358 348 344 339 331
171 177 166 172 174 171 182 172 179 177 166 168 158 138 116 118 101 92 102 109 116 116 111 111 111 117 125 138 154 158 143 135 158 116 107 71 60 71 74 70 90 105 108 102 97 97 97 92 91 90 96 105 109 130 125 116 110 183 277 264 280 260 34 7 357 24 349 47 353 58 25 356 346 342 342 340 343 350 354 350 342 342 338 338 336
174 180 178 168 176 175 185 182 179 185 182 172 160 137 144 189 149 147 137 128 124 131 144 145 147 139 146 169 181 151 152 162 129 154 128 129 82 77 79 85 81 67 87 90 86 84 87 92 83 96 80 234 215 209 155 150 170 182 229 259 258 20 10 1 349 9 351 40 19 45 24 353 346 343 344 340 342 347 350 346 339 337 333 332 336
176 175 180 173 179 176 184 183 175 180 185 182 179 157 166 181 168 170 157 165 151 169 169 163 175 163 180 190 164 167 158 129 79 50 74 74 95 90 99 103 101 97 95 88 84 76 83 86 123 279 270 255 249 249 53 198 180 196 218 240 15 28 357 352 359 17 341 64 352 71 23 354 345 343 341 344 342 343 343 341 339 338 335 338 339
173 175 170 179 179 178 184 184 173 175 179 185 188 185 182 184 182 175 164 185 176 194 183 184 183 173 186 185 177 131 172 107 99 105 127 146 118 112 122 124 125 120 135 133 130 128 160 199 220 236 246 242 269 3 357 355 5 352 21 358 18 12 359 358 358 355 356 358 63 79 30 354 346 344 342 342 341 341 339 338 339 335 336 336 335
170 166 167 183 182 176 171 178 168 175 180 180 189 188 187 185 189 187 184 183 179 187 180 191 183 180 189 199 155 137 190 144 160 174 203 163 156 162 169 187 176 160 201 206 181 163 203 193 195 213 235 206 277 343 342 352 2 337 16 15 351 347 339 335 336 341 334 340 83 76 45 357 349 348 349 347 343 341 339 338 338 339 338 336 337
154 174 174 173 179 179 168 167 172 173 184 181 187 178 186 193 191 193 195 197 181 185 181 182 177 188 190 197 160 167 189 168 172 183 191 168 190 185 181 172 163 150 200 195 200 190 211 211 217 232 238 254 349 319 329 337 345 349 352 343 333 330 326 333 335 330 335 329 108 85 61 5 354 352 349 349 347 343 342 343 341 339 341 342 340
169 183 172 171 174 179 173 166 173 175 184 188 186 177 192 196 193 188 200 204 182 188 186 185 178 178 191 191 183 181 192 179 173 187 190 193 196 183 187 183 178 172 187 213 178 205 227 229 234 223 278 307 282 312 278 320 321 328 329 336 344 331 332 341 338 344 331 340 84 108 87 17 355 353 354 352 353 353 355 353 349 349 351 350 349
181 187 175 172 174 178 175 176 173 176 182 194 197 182 186 200 193 183 215 204 202 190 189 190 173 177 189 190 205 189 190 190 179 183 188 199 185 195 191 181 179 186 189 248 207 211 219 230 234 292 251 226 208 280 301 313 309 292 323 338 343 341 349 340 348 348 339 347 5 118 84 41 4 360 1 5 10 13 13 10 9 8 5 3 5
194 190 179 181 174 178 178 181 176 180 183 189 198 194 188 198 191 191 200 201 210 200 190 182 182 186 186 201 203 205 191 193 183 184 183 189 167 185 193 195 188 182 179 203 212 213 212 211 201 221 217 258 299 286 329 294 301 323 334 337 335 328 349 326 340 341 346 338 335 104 77 61 11 9 14 18 22 23 23 23 21 19 18 18 18
193 191 183 186 175 179 180 183 180 185 184 186 196 196 189 194 197 192 196 196 204 204 188 191 194 190 186 195 199 215 200 195 181 190 179 179 179 177 194 186 184 173 184 197 185 229 202 179 209 217 231 275 292 303 305 308 317 316 319 325 322 327 325 320 323 342 344 334 342 83 92 75 34 24 27 31 30 25 24 25 26 24 24 23 23
199 190 187 187 177 179 184 184 185 182 185 190 194 198 190 195 194 192 195 191 198 201 195 197 201 198 195 184 195 211 209 204 186 189 185 180 184 183 196 184 188 177 178 212 163 251 237 254 289 305 316 306 301 311 311 307 304 304 313 328 326 317 319 316 334 343 340 1 344 356 114 114 82 49 39 41 35 28 28 28 28 27 26 26 25
208 206 188 182 183 186 186 186 186 180 189 192 193 202 196 198 193 199 194 190 190 201 196 194 199 206 202 183 198 198 215 201 201 190 199 191 188 188 199 190 194 174 193 232 226 220 268 293 303 292 297 293 289 296 298 300 302 309 312 307 318 319 316 332 332 338 12 356 1 16 45 123 132 103 79 57 47 35 31 31 33 32 31 30 31
209 206 203 193 186 192 192 189 187 180 192 195 193 199 200 195 197 200 199 187 192 199 198 198 198 198 196 196 201 205 205 214 195 206 204 213 216 204 212 208 214 224 208 201 274 275 246 243 245 238 269 279 285 286 282 282 292 296 300 316 329 309 324 331 334 5 16 18 27 25 31 36 104 143 126 94 66 45 34 38 39 37 38 38 39
202 202 201 205 199 183 193 192 193 188 192 198 196 195 200 197 198 201 202 191 198 198 203 203 197 196 192 193 197 205 211 214 213 201 206 217 213 213 220 220 221 220 240 214 215 233 250 262 276 267 263 262 271 283 301 304 301 298 294 337 316 316 333 324 352 24 351 29 27 36 39 42 24 30 96 115 85 59 40 44 43 41 44 47 46
202 202 200 200 199 201 190 199 192 196 189 199 201 202 197 197 198 201 200 195 200 203 202 208 203 201 193 190 193 197 207 217 214 208 205 216 210 213 217 232 232 201 207 221 247 267 256 256 262 271 282 289 288 291 288 281 282 282 301 322 315 337 309 318 18 6 33 13 54 51 52 42 23 34 22 126 108 77 55 48 46 43 50 53 51
205 203 200 200 203 201 202 210 196 201 195 199 199 206 207 204 204 200 202 192 205 205 206 206 211 206 202 194 189 196 200 207 211 215 209 212 217 217 217 227 232 233 229 239 224 246 266 258 259 272 277 275 277 272 268 282 284 292 317 312 303 317 313 301 356 22 24 4 56 55 53 41 42 20 34 43 68 94 77 67 56 47 49 54 54
204 205 201 199 206 200 193 206 211 207 206 198 200 207 216 212 210 202 206 196 208 210 210 208 210 212 210 205 190 194 198 201 207 208 219 214 220 227 225 218 222 231 237 242 246 243 245 255 258 244 263 283 284 282 276 262 279 330 313 279 279 286 285 306 334 27 204 42 58 48 47 55 56 28 43 45 44 82 113 102 88 59 48 54 55
203 207 207 204 204 206 201 202 211 209 214 215 205 209 218 221 217 212 201 211 210 218 217 212 212 213 213 211 198 192 198 201 203 205 212 219 217 219 229 229 222 218 232 239 244 244 238 250 255 244 237 257 258 275 299 325 341 319 303 290 290 289 293 293 70 236 48 47 76 45 33 49 60 44 41 47 49 59 87 126 113 81 60 58 59
201 204 208 208 208 208 210 202 202 211 209 212 220 219 222 227 228 224 219 215 226 222 223 221 212 212 212 211 210 202 201 202 201 203 210 211 217 222 231 225 222 223 230 233 231 234 243 237 241 246 229 236 324 343 322 327 306 268 269 277 283 290 312 58 257 91 81 93 97 88 62 51 68 52 40 53 57 57 60 51 67 90 82 74 67
201 201 204 207 210 208 207 212 206 214 213 210 205 214 218 222 223 226 229 223 215 226 228 236 226 221 218 216 214 216 213 201 202 203 207 212 213 218 225 225 222 223 223 227 232 228 221 223 232 244 239 214 181 263 280 287 292 278 246 247 260 249 42 335 202 135 106 124 83 54 60 62 50 61 58 61 62 55 60 56 65 59 99 96 89
203 203 203 206 208 208 205 211 209 210 211 210 211 201 202 212 221 221 221 220 203 207 224 227 233 228 225 222 219 216 226 216 204 202 204 208 216 220 224 225 224 224 220 223 225 236 232 227 222 226 242 241 229 215 222 282 279 263 232 212 241 192 115 199 191 126 137 118 64 74 65 54 50 58 60 72 63 56 57 60 60 59 55 69 104
202 204 205 204 205 206 208 208 207 207 209 211 210 209 206 206 205 212 217 218 207 204 216 217 223 227 222 218 219 220 221 223 210 203 205 206 211 221 222 218 218 225 226 229 229 232 236 232 220 234 217 242 242 215 174 204 247 260 302 307 276 163 149 169 196 143 130 115 89 81 52 62 51 47 67 89 84 64 62 63 61 60 57 58 57
201 203 205 204 205 207 210 207 206 205 204 208 210 213 210 207 209 211 212 216 217 209 212 213 212 219 219 216 219 223 222 223 218 209 206 208 213 218 220 219 221 221 222 229 230 230 229 229 226 235 232 202 236 224 205 207 268 339 219 292 240 163 159 162 204 222 129 109 112 101 65 56 61 43 45 74 79 83 76 74 72 63 60 54 54
205 205 204 206 205 207 207 206 206 204 204 201 206 214 213 212 216 220 216 219 219 211 207 214 216 220 224 221 221 224 224 224 223 216 216 208 209 217 223 225 226 224 227 227 227 227 225 226 230 229 234 224 200 212 205 213 232 228 220 219 300 306 194 175 167 141 122 117 108 104 62 47 59 76 87 72 80 81 81 79 77 69 67 57 52
205 205 202 203 205 205 203 201 203 204 205 203 197 204 209 214 220 220 228 223 226 222 212 217 219 222 224 225 225 218 222 225 223 220 216 221 219 219 221 225 228 225 223 228 232 232 228 230 224 220 209 222 218 191 196 214 222 249 283 242 220 208 208 92 196 141 160 153 136 105 92 18 40 60 95 88 88 96 92 78 79 79 69 61 61
207 209 203 205 206 205 201 200 202 202 204 204 196 195 206 210 207 212 212 218 223 218 215 216 218 221 222 222 225 219 218 219 220 222 221 213 214 213 220 221 224 227 221 223 232 234 230 225 214 215 213 211 234 178 177 194 220 219 237 273 339 335 20 96 5 168 181 160 121 141 128 86 80 94 85 96 86 92 72 82 58 92 76 64 65
212 205 205 209 208 206 203 201 202 203 201 201 195 191 201 205 206 209 211 213 220 226 223 221 226 226 223 219 219 218 216 212 216 219 220 211 214 221 218 217 214 217 220 224 230 231 233 225 217 211 218 187 172 224 182 170 185 211 213 238 282 289 282 270 246 99 172 151 186 181 168 135 127 123 115 100 87 67 75 64 79 108 95 84 66
208 200 206 208 208 208 204 203 204 204 202 198 197 195 197 200 203 208 212 217 217 222 217 219 223 230 227 218 208 210 201 212 219 221 222 219 216 220 212 211 216 215 212 220 225 223 227 215 217 204 201 193 199 205 185 166 179 182 202 207 188 219 290 240 290 283 329 169 164 136 125 126 144 107 92 89 75 75 74 90 63 61 102 94 77
201 202 205 208 210 211 210 208 208 206 204 198 199 199 199 200 201 204 211 215 218 222 224 218 217 220 227 221 215 212 207 209 219 221 215 219 204 206 211 212 211 207 208 218 220 221 219 210 189 193 196 196 206 209 197 176 202 197 172 200 182 209 199 233 230 242 225 243 176 163 153 131 155 123 121 107 90 99 107 96 83 67 90 96 83
194 198 205 205 207 208 210 211 212 209 206 205 202 204 202 202 207 209 210 210 207 215 218 219 218 217 220 220 218 213 211 211 212 216 214 210 203 208 210 210 212 209 192 208 209 215 212 208 185 196 197 201 203 198 219 183 205 155 171 184 195 192 197 204 214 203 246 264 267 135 107 134 198 135 112 91 83 113 125 94 98 82 74 81 69
182 196 202 206 206 208 212 214 218 216 214 212 205 206 206 205 211 212 212 212 208 207 211 220 221 218 217 213 214 214 212 214 208 210 212 207 205 200 202 206 205 204 183 192 195 200 207 209 198 197 193 189 184 188 207 180 190 151 177 189 202 202 194 186 190 193 192 169 196 258 217 221 291 316 72 35 9 71 109 105 74 80 62 93 62